Location: Gro� Glienicke
(52.4675°N, 13.1079°E)
Time: 17:40:55
(UTC+00:00)

ATLAS 5 CENTAUR R/B - Pass Details

Date: 06 July 2020
Orbit: 534 x 1124 km, 63.4° (Epoch: 06 August)

Event Time Altitude Azimuth Distance (km) Brightness Sun altitude
Rises 20:47:26 0° 230° (SW) 2,738 4.8 -8.6°
Reaches altitude 10° 20:49:32 10° 233° (SW) 1,889 4.0 -8.8°
Maximum altitude 20:53:45 75° 319° (NW) 656 1.9 -9.1°
Drops below altitude 10° 20:58:38 10° 45° (NE) 2,180 4.5 -9.5°
Sets 21:01:12 0° 47° (NE) 3,202 5.4 -9.7°
